Regional Weather Roundup
Issued by NWS Newport/Morehead, NC

Current Version | Previous Version | Text Only | Print | Product List | Glossary On
Versions: 1 2 3 4 5 6 7 8 9 10 11 12 13 14 15 16 17 18 19 20 21 22 23 24 25 26 27 28 29 30 31 32 33 34 35 36 37 38 39 40 41 42 43 44 45 46 47 48 49 50
000
ASUS42 KMHX 211113
RWRMHX
WEATHER ROUNDUP FOR EASTERN NORTH CAROLINA
NATIONAL WEATHER SERVICE NEWPORT/MOREHEAD CITY NC
700 AM EDT SAT OCT 21 2017

NOTE: "FAIR" INDICATES FEW OR NO CLOUDS BELOW 12,000 FEET
WITH NO SIGNIFICANT WEATHER AND/OR OBSTRUCTIONS TO VISIBILITY

NCZ015>017-031-032-045>047-102-103-211200-
NORTH COAST

CITY           SKY/WX    TMP DP  RH WIND       PRES   REMARKS
EDENTON        CLEAR     52  51  93 CALM      30.29R
ELIZABETH CITY FOG       51  51 100 CALM      30.29R VSB 1/4
KITTY HAWK     SUNNY    N/A N/A N/A CALM      30.26R
MANTEO         FOG      N/A N/A N/A CALM      30.28R VSB 1/4

$$

NCZ045>047-081-094-103-104-211200-
CENTRAL COAST

CITY           SKY/WX    TMP DP  RH WIND       PRES   REMARKS
FRISCO         CLEAR     60  59  96 CALM      30.27R

$$

NCZ095-097-098-100-101-211200-
SOUTHERN COAST

CITY           SKY/WX    TMP DP  RH WIND       PRES   REMARKS
BEAUFORT       CLEAR     52  51  97 CALM      30.27R
CEDAR ISLAND   NOT AVBL
JACKSONVILLE   CLEAR     52  51  97 CALM      30.28R
PINEY ISLAND   NOT AVBL
WILMINGTON     CLEAR     51  50  96 CALM      30.27R


$$

NCZ011>013-027>030-043-044-078>080-089-090>093-098-211200-
COASTAL PLAIN

CITY           SKY/WX    TMP DP  RH WIND       PRES   REMARKS
AHOSKIE        CLEAR     47  47 100 CALM      30.29R FOG
CLINTON        CLEAR     49  49 100 CALM      30.29R
ELIZABETHTOWN  NOT AVBL
GOLDSBORO      CLEAR     49  47  92 CALM      30.27R FOG
GREENVILLE     FOG       48  46  93 CALM      30.29R VSB 1/4
HAVELOCK       CLEAR     52  32  46 CALM      30.29R
KENANSVILLE    CLEAR     45  45 100 CALM      30.29R FOG
KINSTON        CLEAR     46  46 100 CALM      30.29S
NEW BERN       PTCLDY    52  52 100 CALM      30.29R
RICHLANDS      CLEAR     47  46  97 CALM      30.29R
ROCKY MOUNT    CLEAR     48  48 100 CALM      30.30R FOG
WASHINGTON     CLEAR     51  50  95 CALM      30.29R
WHITEVILLE     CLEAR     52  51  97 CALM      30.27R

$$

AMZ130-135-150-152-154-156-158-170-250-252-270-ANZ085-086-088-633-658-670-211200-
MARINE OBSERVATIONS

STATION/POSITION TIME  TEMP    WIND        PRES    WAVE   SWELL
                       AIR SEA DIR/SP/G            HT/PER HT/PER
                 (UTC) (F)     (DEG/KT/KT) (MB)    (FT/S) (FT/S)
CHESAPEAKE LIGHT NOT AVBL
64 E VA BEACH    1050   66 67  360/  2/  2 1025.4    3/ 8   2/ 8
DUCK             1042   65 70  330/  4/  5 1024.8
2 E DUCK         1100      69                N/A     2/ 8
OREGON INLET     1042   62 70  310/  3/  3 1024.9
13E OREGON INLT  1048      71                N/A     3/ 8   2/ 8
HATTERAS CG      1042   67 71   10/  4/  5 1024.8
DIAMOND BUOY     1050   73 80   20/ 10/ 12 1024.4    3/ 8   2/ 8
CAPE LOOKOUT     1100   66      10/  6/  7 1024.7
BEAUFORT LAB     1042   61 71   10/  4/  4 1025.0
30 SE NEW RVR IN 1008   73      80/  6/ 10 1024.2
30 SE NEW RVR IN NOT AVBL
27 SE WRIGHTSVLE 1008   74 75  100/  6/ 10 1024.4
5 SE WRIGHTSVLE  1008   69 74  360/  8/ 12 1024.3
225 S CAPE HAT   1050   76 80   50/ 12/ 16 1022.8    4/ 8   3/ 8
41 SE CHARLESTON 1050   75 80   40/ 12/ 16 1022.7    3/ 8   2/ 8

$$




USA.gov is the U.S. government's official web portal to all federal, state and local government web resources and services.